Location: *
(32.8667°N, 13.1833°E)
Time: 01:22:43
(UTC+00:00)

Cosmos 2322 Rocket - Pass Details

Date: 18 July 2019
Orbit: 833 x 850 km, 71.0° (Epoch: 23 August)

Event Time Altitude Azimuth Distance (km) Brightness Sun altitude
Rises 19:41:06 0° 205° (SSW) 3,395 5.2 -16.1°
Reaches altitude 10° 19:43:33 10° 207° (SSW) 2,464 4.5 -16.5°
Maximum altitude 19:49:12 71° 291° (WNW) 898 2.5 -17.4°
Drops below altitude 10° 19:54:53 10° 16° (NNE) 2,480 5.0 -18.3°
Sets 19:57:22 0° 18° (NNE) 3,418 5.7 -18.7°
